Miami, FL

7:33 AM EDT on March 29, 2017 (GMT -0400)
Miami International

Weather History for KMIA - June, 2012

Change the Weather History Date:

Tuesday, June 12, 2012

  Actual Average Record
Temperature  
Mean Temperature 82 °F 83 °F  
Max Temperature 87 °F 89 °F 95 °F (1952)
Min Temperature 76 °F 76 °F 65 °F (1920)
Degree Days  
Heating Degree Days 0 0  
Month to date heating degree days 0 0  
Since 1 June heating degree days 0 0  
Since 1 July heating degree days 55 128  
Cooling Degree Days 17 18  
Month to date cooling degree days 222 207  
Year to date cooling degree days 1763 1563  
Since 1 June cooling degree days 222 207  
Growing Degree Days 31 (Base 50)    
Moisture  
Dew Point 66 °F    
Average Humidity 58    
Maximum Humidity 67    
Minimum Humidity 48    
Precipitation  
Precipitation 0.00 in 0.33 in 4.74 in (1967)
Month to date precipitation 4.19 3.63  
Year to date precipitation 35.27 18.98  
Snow  
Snow 0.00 in - - ()
Month to date snowfall 0.0  
Since 1 June snowfall 0.0  
Since 1 July snowfall 0.0  
Snow Depth 0.00 in    
Sea Level Pressure  
Sea Level Pressure 30.03 in    
Wind  
Wind Speed 7 mph (ENE)    
Max Wind Speed 16 mph    
Max Gust Speed 20 mph    
Visibility 10 miles    
Events      
T = Trace of Precipitation, MM = Missing Value Source: NWS Daily Summary

Daily Weather History Graph

Daily Weather History Graph

Search for Another Location

Airport or City:

Trip Planner

Search our weather history database for the weather conditions in past years. The results will help you decide how hot, cold, wet, or windy it might be!

Date:

Astronomy

Jun. 12, 2012 Rise Set
Actual Time 6:29 AM EDT 8:13 PM EDT
Civil Twilight 6:03 AM EDT 8:39 PM EDT
Nautical Twilight 5:32 AM EDT 9:10 PM EDT
Astronomical Twilight 4:59 AM EDT 9:43 PM EDT
Moon 1:43 AM EDT (6/12) 2:27 PM EDT (6/12)
Length of Visible Light 14h 35m
Length of Day
13h 44m
Last Quarter, 38% of the Moon is Illuminated
Jun 12
Last Quarter
Jun 19
New
Jun 26
First Quarter
Jul 3
Full
Jul 10
Last Quarter

Hourly Weather History & Observations

Time (EDT) Temp. Heat Index Dew Point Humidity Pressure Visibility Wind Dir Wind Speed Gust Speed Precip Events Conditions
12:53 AM 80.1 °F 82.3 °F 66.9 °F 64% 30.09 in 10.0 mi NE 6.9 mph - N/A   Partly Cloudy
1:53 AM 79.0 °F - 66.9 °F 66% 30.07 in 10.0 mi ENE 8.1 mph - N/A   Partly Cloudy
2:53 AM 79.0 °F - 66.0 °F 64% 30.05 in 10.0 mi ENE 5.8 mph - N/A   Partly Cloudy
3:53 AM 79.0 °F - 66.0 °F 64% 30.04 in 10.0 mi ENE 6.9 mph - N/A   Partly Cloudy
4:53 AM 78.1 °F - 66.0 °F 66% 30.03 in 10.0 mi NE 3.5 mph - N/A   Partly Cloudy
5:53 AM 78.1 °F - 64.9 °F 64% 30.03 in 10.0 mi ENE 6.9 mph - N/A   Partly Cloudy
6:53 AM 78.1 °F - 66.0 °F 66% 30.06 in 10.0 mi Calm Calm - N/A   Scattered Clouds
7:53 AM 80.1 °F 82.1 °F 66.0 °F 62% 30.07 in 10.0 mi NE 3.5 mph - N/A   Scattered Clouds
8:53 AM 81.0 °F 82.7 °F 64.9 °F 58% 30.07 in 10.0 mi East 6.9 mph - N/A   Scattered Clouds
9:53 AM 82.9 °F 85.0 °F 66.0 °F 56% 30.07 in 10.0 mi ENE 8.1 mph - N/A   Scattered Clouds
10:53 AM 84.0 °F 85.8 °F 64.9 °F 53% 30.06 in 10.0 mi NE 9.2 mph - N/A   Scattered Clouds
11:53 AM 84.9 °F 86.1 °F 64.0 °F 49% 30.05 in 10.0 mi ESE 9.2 mph - N/A   Scattered Clouds
12:53 PM 86.0 °F 87.6 °F 64.9 °F 49% 30.05 in 10.0 mi East 12.7 mph 17.3 mph N/A   Scattered Clouds
1:53 PM 86.0 °F 87.3 °F 64.0 °F 48% 30.03 in 10.0 mi East 6.9 mph - N/A   Scattered Clouds
2:53 PM 86.0 °F 88.2 °F 66.0 °F 51% 30.01 in 10.0 mi ENE 9.2 mph 17.3 mph N/A   Scattered Clouds
3:53 PM 84.9 °F 87.1 °F 66.0 °F 53% 30.01 in 10.0 mi East 8.1 mph - N/A   Scattered Clouds
4:53 PM 84.0 °F 86.3 °F 66.0 °F 55% 30.00 in 10.0 mi East 12.7 mph - N/A   Scattered Clouds
5:53 PM 84.0 °F 85.8 °F 64.9 °F 53% 29.99 in 10.0 mi East 9.2 mph - N/A   Scattered Clouds
6:53 PM 82.9 °F 84.4 °F 64.0 °F 53% 29.98 in 10.0 mi ENE 10.4 mph - N/A   Scattered Clouds
7:53 PM 81.0 °F 82.7 °F 64.9 °F 58% 29.99 in 10.0 mi NE 6.9 mph - N/A   Scattered Clouds
8:53 PM 80.1 °F 81.9 °F 64.9 °F 60% 30.01 in 10.0 mi NE 6.9 mph - N/A   Scattered Clouds
9:53 PM 79.0 °F - 66.0 °F 64% 30.01 in 10.0 mi Variable 6.9 mph - N/A   Clear
10:53 PM 78.8 °F - 66.2 °F 65% 30.01 in 10.0 mi East 10.4 mph - N/A   Clear
11:53 PM 79.0 °F - 66.0 °F 64% 30.02 in 10.0 mi East 6.9 mph - N/A   Partly Cloudy